Regional Weather Roundup
Issued by NWS Charleston, SC

Current Version | Previous Version | Graphics & Text | Print | Product List | Glossary On
Versions: 1 2 3 4 5 6 7 8 9 10 11 12 13 14 15 16 17 18 19 20 21 22 23 24 25 26 27 28 29 30 31 32 33 34 35 36 37 38 39 40 41 42 43 44 45 46 47 48 49 50
000
ASUS42 KCHS 212227
RWRCHS

REGIONAL WEATHER ROUNDUP
NATIONAL WEATHER SERVICE CHARLESTON SC
500 PM EST SAT JAN 21 2017

NOTE: "FAIR" INDICATES FEW OR NO CLOUDS BELOW 12,000 FEET WITH NO
SIGNIFICANT WEATHER AND/OR OBSTRUCTIONS TO VISIBILITY.

NOT ALL STATIONS ARE QUALITY CONTROLLED. USE DATA WITH CAUTION...
ESPECIALLY DEWPOINT OBSERVATIONS.

SCZ027-030-031-034>040-042>050-212300-
...SOUTHEAST SOUTH CAROLINA...

CITY           SKY/WX    TMP DP  RH WIND       PRES   REMARKS
N CHARLESTON   TSTM      66  62  87 SW14G29   29.72R
WATERFRONT PRK   N/A     61  61 100 SE8       29.71F
MOUNT PLEASANT RAIN      66  66 100 S17       29.73R
JOHNS ISLAND   RAIN      63  63 100 SW13G20   29.76R
PINOPOLIS        N/A     18 -17  21 N33         N/A  WCI  -3
MONCKS CORNER  LGT RAIN  64  63  94 SW18G30   29.72R
SUMMERVILLE    RAIN      63  63 100 SW13G20   29.74R
BEAUFORT MCAS  TSTM      62  60  93 S7        29.76F FOG
BEAUFORT ARPT  TSTM      61  59  94 S6        29.76F
HILTON HEAD IS CLOUDY    61  61 100 W8        29.80R
WALTERBORO     RAIN      61  59  94 W7        29.75R
ALLENDALE      LGT RAIN  63  61  94 SE7       29.69F

...SOUTHERN MIDLANDS AND PEE DEE...

CITY           SKY/WX    TMP DP  RH WIND       PRES   REMARKS
GEORGETOWN     CLOUDY    64  64 100 SE6       29.73F
KINGSTREE      HVY RAIN  64  63  94 SE5       29.72R
ORANGEBURG     LGT RAIN  65  63  93 E10       29.68R
BARNWELL       DRIZZLE   64  63  94 SE13      29.65F
AIKEN          FAIR      61  61 100 S3        29.67R
MANNING        HVY RAIN  64  63  94 CALM      29.71S VSB 1
COLUMBIA       CLOUDY    66  64  93 SE18G25   29.60F
SUMTER         RAIN      64  64 100 SE21      29.65F FOG
FLORENCE       CLOUDY    66  64  93 SE10      29.71F
MYRTLE BEACH   FOG       64  61  88 S9        29.77S VSB 1/2
N MYRTLE BEACH FOG       62  62 100 S7        29.75S VSB 3/4

$$

GAZ063-065-086>088-099>101-113>116-118-119-134>141-150-212300-
...SOUTHEAST GEORGIA...

CITY           SKY/WX    TMP DP  RH WIND       PRES   REMARKS
SAVANNAH ARPT  LGT RAIN  62  58  86 S8        29.78F
HUNTER AAF     CLOUDY    60  60 100 S5        29.76F
FORT STEWART   LGT RAIN  61  59  93 S6        29.74F
STATESBORO     LGT RAIN  62  32  32 S9        29.73R
SYLVANIA       LGT RAIN N/A N/A N/A S6        29.72S
CLAXTON        RAIN     N/A N/A N/A S3        29.75R

...CSRA...CENTRAL AND FAR SOUTHEAST GEORGIA...

CITY           SKY/WX    TMP DP  RH WIND       PRES   REMARKS
THOMSON        CLOUDY    65  62  90 W9        29.66R
AUGUSTA-BUSH   CLOUDY    66  58  75 NW13G21   29.61F
AUGUSTA-DANIEL CLOUDY    66  55  67 SW8       29.61F
SWAINSBORO     LGT RAIN  61  61 100 S7G13     29.68R
VIDALIA        RAIN      61  61 100 S10       29.74S
EASTMAN        FAIR      64  61  92 SW6       29.67F
HAZLEHURST     HVY RAIN  62  62 100 S7        29.74F
ALMA           RAIN      61  61 100 S5        29.77S
WAYCROSS       RAIN      64  64 100 CALM      29.75R
JESUP          RAIN      61  59  94 CALM      29.80S
BAXLEY         RAIN      63  63 100 S5        29.78R
BRUNSWICK      CLOUDY    64  61  88 NW10G18   29.81R
SAINT SIMONS   RAIN      67  59  75 W17       29.88R

$$

SCZ027-028-034-036>038-045-046-048>050-GAZ119-141-212300-
...LAKE AND SUPPLEMENTAL COASTAL OBSERVATIONS...

STATION/POSITION TIME  TEMP    WIND        PRES    WAVE   SWELL
                       AIR SEA DIR/SP/G            HT/PER HT/PER/DIR
                 (UTC) (F)     (DEG/KT/KT) (MB)    (FT/S) (FT/S/D)
WINYAH BAY       2145   61     160/  3     1007.0S
LAKE MURRAY      2150   64      CALM  /  7 1003.0F
ACE BASIN NERRS  2145   61     190/  1     1008.0R
FORT PULASKI     2200   59 58  210/  5/  6 1008.6
SAPELO ISLAND    2200   65     340/ 10     1009.0

$$

ANZ835-935-AMZ111-154-330-350-352-354-370-450-454-472-212300-
...C-MAN AND BUOY OBSERVATIONS...

STATION/POSITION TIME  TEMP    WIND        PRES    WAVE   SWELL
                       AIR SEA DIR/SP/G            HT/PER HT/PER/DIR
                 (UTC) (F)     (DEG/KT/KT) (MB)    (FT/S) (FT/S/D)
BUOY 41004       2150   70 67  190/  8/ 10 1007.2R   2/11   2/ 80/11
BUOY 41008       2150   66 62  180/ 12/ 14 1007.2R   3/13   2/ 80/13
FOLLY BEACH CMAN 2200   63     190/ 15/ 19 1007.1F
CAPERS NEARSHORE 2208   62 58  170/ 14/ 17 1005.6F
FRIPP NEARSHORE  2208   60 59  260/ 12/ 16 1007.3R


STATION/POSITION TIME  TEMP    WIND        PRES    WAVE   SWELL
                       AIR SEA DIR/SP/G            HT/PER HT/PER/DIR
                 (UTC) (F)     (DEG/KT/KT) (MB)    (FT/S) (FT/S/D)
5E ST. MARYS GA  2200      64                N/A     3/12   2/ 90/12
FRYING PAN BUOY  2210   71 71  170/ 12/ 14 1007.8
BUOY 41025       2150   71 74  160/ 10/ 12 1009.4F   4/10   3/ 70/10
CAPE LOOKOUT NC  2200   62      30/  9/ 10 1008.3F
BUOY 41002       2150   69 71  130/ 12/ 12 1010.9F   5/ 7   5/220/ 7
BUOY 41010       NOT AVBL
ST AUGUSTINE FL  2200   79 65  220/  7/ 10 1009.1R


$$




USA.gov is the U.S. government's official web portal to all federal, state and local government web resources and services.